Regional Weather Roundup
Issued by NWS Northern Indiana

Home | Current Version | Previous Version | Graphics & Text | Print | Product List | Glossary On
Versions: 1 2 3 4 5 6 7 8 9 10 11 12 13 14 15 16 17 18 19 20 21 22 23 24 25 26 27 28 29 30 31 32 33 34 35 36 37 38 39 40 41 42 43 44 45 46 47 48 49 50
000
ASUS43 KIWX 241710
RWRIWX

KIWX WEATHER ROUNDUP
NATIONAL WEATHER SERVICE NORTHERN INDIANA
100 PM EDT FRI APR 24 2015

NOTE: "FAIR" INDICATES FEW OR NO CLOUDS BELOW 12,000 FEET WITH NO
SIGNIFICANT WEATHER AND/OR OBSTRUCTIONS TO VISIBILITY.

* THESE STATIONS ARE NOT UNDER NWS QUALITY CONTROL. THEY ALSO MAY NOT
  REPORT WEATHER SUCH AS PRECIPITATION OR FOG.

INZ001>027-241800-
NORTHERN INDIANA

CITY           SKY/WX    TMP DP  RH WIND       PRES   REMARKS
GARY*          PTSUNNY   57  -4   8 W7        30.07F
VALPARAISO     MOSUNNY   57  15  19 NW7       30.06F
MICHIGAN CITY* SUNNY     55   7  14 CALM      30.05F
LAPORTE*       SUNNY     58  19  21 SW8       30.06F
KNOX*          SUNNY     55 N/A N/A SW5       30.05F
SOUTH BEND     SUNNY     56  15  20 W6        30.08F
ELKHART*       SUNNY     55  12  18 S6        30.07F
GOSHEN         SUNNY     55  25  31 NW6       30.06F
MONTICELLO*    SUNNY     57  24  27 S5        30.06F
LOGANSPORT*    SUNNY     55  10  16 S5        30.08F
ROCHESTER*     SUNNY     59  19  21 SW8       30.07F
WARSAW*        SUNNY     55  19  24 CALM      30.07F
ANGOLA*        SUNNY     55  21  26 SW6       30.06F
FORT WAYNE     MOSUNNY   56  21  25 SW9       30.09F
HUNTINGTON*    SUNNY     55  19  24 SW7       30.07F
PERU/GRISSOM   SUNNY     57  20  24 W8        30.07F
MARION*        SUNNY     55  17  22 W8        30.09F

$$
INZ028>050-241800-
CENTRAL INDIANA

CITY           SKY/WX    TMP DP  RH WIND       PRES   REMARKS
LAFAYETTE      MOSUNNY   58  22  24 W9        30.06F
KOKOMO*        SUNNY     57  21  24 S7        30.08F
MUNCIE*        SUNNY     57  21  24 W9        30.08F
INDIANAPOLIS   PTSUNNY   57  21  24 SW8       30.08F

$$
MIZ043>046-050>051-056>058-064>065-071>073-077>080-241800-
SOUTHWEST LOWER MICHIGAN

CITY           SKY/WX    TMP DP  RH WIND       PRES   REMARKS
BATTLE CREEK   SUNNY     51  22  31 VRB3      30.07F
BENTON HARBOR  MOSUNNY   52  19  27 SW6       30.06F
COLDWATER*     SUNNY     53  19  26 W5        30.08S
HILLSDALE*     SUNNY     53  20  28 NW3       30.06F
HOLLAND        SUNNY     54  25  32 CALM      30.08F
GRAND RAPIDS   SUNNY     51  21  30 CALM      30.08F
KALAMAZOO      SUNNY     53  21  28 MISG      30.07F
STURGIS*       SUNNY     54  21  28 CALM      30.06F
THREE RIVERS*  FAIR      54  27  34 S7        30.07F

$$
OHZ001>008-015>018-024>025-241800-
NORTHWEST OHIO

CITY           SKY/WX    TMP DP  RH WIND       PRES   REMARKS
WAUSEON*       FAIR      54  21  28 NW8G14    30.08F
DEFIANCE       SUNNY     55  21  26 NW8       30.09F
FINDLAY        SUNNY     55  21  26 NW7       30.07F
TOLEDO EXPRESS SUNNY     52  22  30 SW9       30.08F
TOLEDO METCALF SUNNY     52  23  32 W8        30.09F
LIMA           SUNNY     52  22  30 SW9       30.09F

$$
AND FOR LAKE MICHIGAN COASTAL AND OPEN LAKE BUOY OBSERVATIONS

STATION/POSITION TEMP    WIND        PRES    VSBY  WAVE
                 AIR SEA DIR/SP/G                  HT/PER
                 (F)     (DEG/KT/KT) (MB)    (MI)  (FT/S)
CALUMET HARBOR    52      70/  6/  8   N/A
MICHIGAN CITY     45     360/  8/  9   N/A
BURNS HARBOR      49      20/  5/  6 1018.6S
SAINT JOSEPH      52     250/  3/  3 1019.3R
MICHIGAN CITY     44 44   10/  6/  8   N/A           0

$$
&&


USA.gov is the U.S. government's official web portal to all federal, state and local government web resources and services.